Weather History for Frenchville, ME

Change the Weather History Date:

Sunday, March 24, 2013

  Actual Average Record
Temperature  
Mean Temperature 29 °F 26 °F  
Max Temperature 39 °F 34 °F 44 °F (1999)
Min Temperature 19 °F 18 °F -7 °F (2008)
Degree Days  
Heating Degree Days 36    
Month to date heating degree days 924  
Since 1 July heating degree days 7414  
Cooling Degree Days 0    
Month to date cooling degree days 0  
Year to date cooling degree days 0  
Moisture  
Dew Point 25 °F    
Average Humidity 79    
Maximum Humidity 93    
Minimum Humidity 62    
Precipitation  
Precipitation T in 0.06 in 0.22 in (2001)
Month to date precipitation 0.85 1.00  
Year to date precipitation 3.07 3.57  
Sea Level Pressure  
Sea Level Pressure 29.63 in    
Wind  
Wind Speed 12 mph (NNW)    
Max Wind Speed 23 mph    
Max Gust Speed 31 mph    
Visibility 9 miles    
Events Snow    
T = Trace of Precipitation, MM = Missing Value Source: NWS Daily Summary

Daily Weather History Graph

Daily Weather History Graph

Search for Another Location

Airport:

Trip Planner

Search our weather history database for the weather conditions in past years. The results will help you decide how hot, cold, wet, or windy it might be!

Date:

Astronomy

Mar. 24, 2013 Rise Set
Actual Time 6:27 AM EDT 6:51 PM EDT
Civil Twilight 5:57 AM EDT 7:22 PM EDT
Nautical Twilight 5:20 AM EDT 7:58 PM EDT
Astronomical Twilight 4:43 AM EDT 8:36 PM EDT
Moon 4:08 PM EDT (3/24) 4:46 AM EDT (3/24)
Length of Visible Light 13h 25m
Length of Day
12h 24m
Waxing Gibbous, 91% of the Moon is Illuminated
Mar 24
Waxing Gibbous
Mar 27
Full
Apr 3
Last Quarter
Apr 10
New
Apr 18
First Quarter

Hourly Weather History & Observations

Time (EDT) Temp. Windchill Dew Point Humidity Pressure Visibility Wind Dir Wind Speed Gust Speed Precip Events Conditions
12:24 AM 26.6 °F 13.1 °F 21.2 °F 80% 29.49 in 10.0 mi North 19.6 mph 31.1 mph N/A   Scattered Clouds
12:53 AM 26.1 °F 13.6 °F 19.9 °F 78% 29.53 in 10.0 mi NNW 16.1 mph 31.1 mph N/A   Partly Cloudy
1:28 AM 24.8 °F 11.9 °F 19.4 °F 80% 29.51 in 10.0 mi NNW 16.1 mph 24.2 mph N/A   Mostly Cloudy
1:46 AM 24.8 °F 13.4 °F 19.4 °F 80% 29.51 in 10.0 mi NNW 12.7 mph 24.2 mph N/A   Scattered Clouds
1:53 AM 24.1 °F 12.0 °F 19.0 °F 81% 29.55 in 10.0 mi NNW 13.8 mph - N/A   Partly Cloudy
2:53 AM 24.1 °F 12.5 °F 19.0 °F 81% 29.55 in 10.0 mi NNW 12.7 mph - N/A   Clear
3:53 AM 23.0 °F 13.1 °F 19.0 °F 85% 29.55 in 10.0 mi NNW 9.2 mph - N/A   Clear
4:53 AM 21.9 °F 12.5 °F 19.9 °F 92% 29.57 in 10.0 mi WNW 8.1 mph - N/A   Mostly Cloudy
5:53 AM 23.0 °F 13.9 °F 19.9 °F 88% 29.57 in 10.0 mi WNW 8.1 mph - N/A   Mostly Cloudy
6:00 AM 21.2 °F 10.1 °F 19.4 °F 93% 29.54 in 9.0 mi WNW 10.4 mph - 0.00 in Snow Light Snow
6:53 AM 23.0 °F 13.9 °F 19.9 °F 88% 29.58 in 10.0 mi WNW 8.1 mph - 0.00 in   Overcast
7:24 AM 24.8 °F 15.3 °F 21.2 °F 86% 29.55 in 10.0 mi WNW 9.2 mph - N/A   Overcast
7:38 AM 23.0 °F 13.1 °F 21.2 °F 93% 29.55 in 10.0 mi West 9.2 mph - N/A   Overcast
7:45 AM 24.8 °F 15.3 °F 21.2 °F 86% 29.55 in 10.0 mi WNW 9.2 mph - N/A   Overcast
7:53 AM 25.0 °F 17.1 °F 21.9 °F 88% 29.59 in 10.0 mi NW 6.9 mph - N/A   Overcast
8:53 AM 28.9 °F 17.7 °F 25.0 °F 85% 29.60 in 10.0 mi NW 15.0 mph - N/A   Overcast
9:53 AM 30.9 °F 19.8 °F 26.1 °F 82% 29.62 in 10.0 mi NNW 16.1 mph - N/A   Overcast
10:19 AM 32.0 °F 23.0 °F 26.6 °F 80% 29.60 in 10.0 mi NNW 11.5 mph 24.2 mph N/A   Overcast
10:53 AM 33.1 °F 24.4 °F 26.1 °F 75% 29.64 in 10.0 mi NNW 11.5 mph - N/A   Overcast
11:53 AM 34.0 °F 24.6 °F 27.0 °F 75% 29.66 in 5.0 mi NNW 13.8 mph - 0.00 in Snow Light Snow
12:45 PM 33.8 °F 22.2 °F 26.6 °F 75% 29.65 in 2.0 mi NNW 20.7 mph 24.2 mph 0.00 in Snow Light Snow
12:47 PM 33.8 °F 22.8 °F 28.4 °F 81% 29.65 in 1.5 mi NW 18.4 mph 24.2 mph 0.00 in Snow Light Snow
12:53 PM 34.0 °F 24.2 °F 28.9 °F 82% 29.68 in 1.2 mi NNW 15.0 mph - 0.00 in Snow Light Snow
12:55 PM 33.8 °F 24.8 °F 28.4 °F 81% 29.65 in 1.8 mi NW 12.7 mph - 0.00 in Snow Light Snow
12:57 PM 35.6 °F 26.6 °F 28.4 °F 75% 29.65 in 3.0 mi NW 13.8 mph - 0.00 in Snow Light Snow
1:53 PM 37.9 °F 32.1 °F 26.1 °F 62% 29.68 in 10.0 mi North 8.1 mph 20.7 mph 0.00 in   Overcast
2:53 PM 36.0 °F 25.6 °F 28.0 °F 73% 29.69 in 6.0 mi NNW 18.4 mph 26.5 mph 0.00 in   Haze
3:53 PM 37.9 °F 29.2 °F 28.9 °F 70% 29.69 in 10.0 mi NNW 15.0 mph 26.5 mph 0.00 in   Overcast
4:53 PM 37.9 °F 30.5 °F 28.9 °F 70% 29.70 in 9.0 mi NNE 11.5 mph 20.7 mph 0.00 in Snow Light Snow
5:02 PM 37.4 °F 28.5 °F 28.4 °F 70% 29.67 in 10.0 mi North 15.0 mph 19.6 mph N/A   Mostly Cloudy
5:11 PM 37.4 °F 30.3 °F 28.4 °F 70% 29.67 in 10.0 mi North 10.4 mph 18.4 mph N/A   Mostly Cloudy
5:38 PM 37.4 °F 27.8 °F 26.6 °F 65% 29.67 in 10.0 mi North 17.3 mph 29.9 mph N/A   Overcast
5:51 PM 35.6 °F 26.2 °F 26.6 °F 70% 29.68 in 10.0 mi North 15.0 mph 24.2 mph N/A   Mostly Cloudy
5:53 PM 36.0 °F 26.3 °F 27.0 °F 70% 29.72 in 10.0 mi North 16.1 mph 24.2 mph N/A   Mostly Cloudy
6:53 PM 35.1 °F 27.4 °F 27.0 °F 72% 29.74 in 10.0 mi North 10.4 mph - N/A   Partly Cloudy
7:53 PM 34.0 °F 25.0 °F 28.0 °F 79% 29.76 in 10.0 mi North 12.7 mph - N/A   Overcast
8:53 PM 33.1 °F 24.4 °F 27.0 °F 78% 29.77 in 10.0 mi North 11.5 mph - N/A   Clear
9:53 PM 32.0 °F 24.2 °F 27.0 °F 82% 29.79 in 10.0 mi North 9.2 mph - N/A   Clear
10:53 PM 30.9 °F 22.8 °F 27.0 °F 85% 29.78 in 10.0 mi North 9.2 mph - N/A   Clear
11:53 PM 30.0 °F 21.1 °F 27.0 °F 88% 29.78 in 10.0 mi North 10.4 mph - N/A   Clear